Showing default

EXPRESS 80, 45986

Orbit data source: Space-Track

EXPRESS 80, 45986 is a payload satellite owned by KosSvyaz (CIS) in GEO that was launched on Thu, 30 Jul 2020 UTC via a PROTON-M/BRIZ-M launch vehicle from the Tyuratam Missile And Space Complex (TTMTR). Payload-class satellites include a variety of spacecraft equipped with specific instruments for various scientific and technological missions. These include communications satellites like Starlink; space stations such as the ISS; scientific satellites like the Hubble; Earth observation satellites from companies like Planet Labs, Umbra, and HawkEye 360; GPS; miniature CubeSats for education and research; and military/defense satellites.

Not visible in the next 10 days
Identifier
45986, 2020-053B
Orbit
GEO
Country
Flag of CISCIS
Related business
Manufacturer
Resehetnev ISS
Mission
Operational Commercial Communications
Bus & Motor
EKSPRESS-1000N, AOCS
Mass
2,110 kg wet, ~1,800 kg dry
Launch date (UTC)
2020-07-30 (5 years ago)
Launch vehicle
PROTON-M/BRIZ-M
Launch site
Tyuratam Missile And Space Complex (TTMTR)
Object type
Payload
Rocket body
Debris
Shape & HBR
Box + 2 Pan, Unknown HBR
Radar Cross Section
16.987 m², Large (>1 m²)

Expand to show TLE details & history
Last TLE update: 1 day ago

TLE from 1 day ago
0 EXPRESS 80
1 45986U 20053B   25259.78898875 -.00000158  00000-0  00000-0 0  9990
2 45986   0.0193 223.4314 0001509 177.4976 319.0811  1.00281761 18897
Epoch: 2025-09-16T18:56Z
TLE epoch observation values (Epoch: 2025-09-16T18:56:08.627Z)
Latitude
0.00668°
Longitude
79.98976°
Altitude
35,778.469 km
Speed
3.075 km/s
True Right ascension
23h 59m 59s
True Declination
0° 00' 24"
Sunlit
Object was in full shadow at epoch
Visualization orbit readout
Latitude
Unknown
Longitude
Unknown
Altitude
Unknown
Speed
Unknown
Apparent Right ascension
Unknown
Apparent Declination
Unknown
Sunlit
N/A
Visualization observer readout
Local Sidereal Time
17:00:12
Azimuth
Unknown
Elevation
Unknown
Doppler factor
Unknown
Orbital elements
Apogee altitude
35,791.231 km
Perigee altitude
35,778.507 km
Semi-major axis
42,163.006 km
Eccentricity
0.00015
Inclination
0.0193°
RAAN
223.4314°
Arg. of periapsis
177.4976°
True anomaly
319.06977°
Mean anomaly
319.0811°
Eccentric anomaly
319.07544°
Mean motion
0.2507 °/min
Orbital period
1,436.01 mins
BSTAR
0
Loading maneuver chart data...
Computing Atmospheric mass density...
Loading historical data...
Loading historical data...
Loading historical data...
Loading historical data...
Loading historical data...
Loading historical data...
Loading historical data...
Other satellites on launch #53 in the year 2020 (2020-07-30 UTC)

Documentation

Showing up to 5 results
|